Location: Barnston
(51.8500°N, 0.4000°E)
Time: 19:00:59
(UTC+00:00)

ATLAS 2AS CENTAUR R/B - Pass Details

Date: 26 September 2023
Orbit: 1000 x 1211 km, 63.7° (Epoch: 02 December)

Event Time Altitude Azimuth Distance (km) Brightness Sun altitude
Exits shadow 03:33:15 27° 206° (SSW) 2,094 3.8 -21.2°
Maximum altitude 03:37:37 72° 129° (SE) 1,225 3.0 -20.6°
Drops below altitude 10° 03:44:48 10° 47° (NE) 3,012 6.1 -19.6°
Sets 03:47:26 0° 45° (NE) 3,944 7.0 -19.3°
